Date String (YYYY-MM-DD hh:mm:ss) UTC,Instrument flags,Ambient pressure (hPa),Sample flow (lpm),Bypass flow (lpm),Sample temperature (°C),Ambient temperature (°C),ASC tube jacket temperature (°C),LED temperature (°C),Box temperature (°C),Sample RH (%),Span deviation,Mass concentration (μg/m³),Mass concentration (μg/m³),Mass concentration (μg/m³)
DateTimeUTC,F1_M11,P_M11,Q1_M11,Q2_M11,T1_M11,T2_M11,T3_M11,T4_M11,T5_M11,U1_M11,ZSPAN_M11,X0_M11,X2_M11,X1_M11
2022-11-11 08:00:00,,0827.4,5.01,0.00,22.6,21.2,00.0,31.4,24.3,08.7,0000.0,0009.39,0003.75,0003.32
2022-11-11 08:01:00,,0827.4,5.00,0.00,22.5,21.2,00.0,31.4,24.3,08.7,0000.0,0008.71,0003.72,0003.31
2022-11-11 08:02:00,,0827.4,5.00,0.00,22.6,21.8,00.0,31.4,24.5,08.7,0000.0,0008.96,0003.70,0003.30
2022-11-11 08:03:00,,0827.4,5.00,0.00,22.7,22.5,00.0,31.4,24.7,08.6,0000.0,0009.41,0003.68,0003.29
2022-11-11 08:04:00,,0827.4,4.99,0.00,22.7,22.4,00.0,31.4,24.7,08.6,0000.0,0009.59,0003.67,0003.28
2022-11-11 08:05:00,,0827.4,5.02,0.00,22.7,22.1,00.0,31.4,24.7,08.6,0000.0,0009.58,0003.67,0003.28
2022-11-11 08:06:00,,0827.4,5.00,0.00,22.7,21.9,00.0,31.4,24.6,08.6,0000.0,0009.51,0003.67,0003.27
2022-11-11 08:07:00,,0827.3,5.00,0.00,22.7,21.7,00.0,31.4,24.6,08.6,0000.0,0009.92,0003.66,0003.26
2022-11-11 08:08:00,,0827.2,4.99,0.00,22.7,21.6,00.0,31.5,24.6,08.6,0000.0,0010.40,0003.68,0003.25
2022-11-11 08:09:00,,0827.2,5.02,0.00,22.7,21.5,00.0,31.5,24.5,08.6,0000.0,0009.97,0003.70,0003.24
2022-11-11 08:10:00,,0827.3,5.00,0.00,22.7,21.5,00.0,31.5,24.5,08.5,0000.0,0009.10,0003.68,0003.23
2022-11-11 08:11:00,,0827.4,4.98,0.00,22.7,21.4,00.0,31.5,24.5,08.5,0000.0,0008.98,0003.64,0003.22
2022-11-11 08:12:00,,0827.4,5.01,0.00,22.7,21.4,00.0,31.5,24.5,08.6,0000.0,0008.95,0003.63,0003.22
2022-11-11 08:13:00,,0827.4,5.01,0.00,22.7,21.3,00.0,31.5,24.5,08.6,0000.0,0008.72,0003.62,0003.22
2022-11-11 08:14:00,,0827.4,4.98,0.00,22.6,21.3,00.0,31.5,24.4,08.6,0000.0,0008.18,0003.58,0003.21
2022-11-11 08:15:00,,0827.4,5.01,0.00,22.6,21.3,00.0,31.5,24.4,08.6,0000.0,0008.04,0003.58,0003.21
2022-11-11 08:16:00,,0827.4,5.01,0.00,22.6,21.2,00.0,31.5,24.4,08.6,0000.0,0007.97,0003.56,0003.20
2022-11-11 08:17:00,,0827.4,4.98,0.00,22.6,21.2,00.0,31.5,24.4,08.6,0000.0,0008.26,0003.56,0003.20
2022-11-11 08:18:00,,0827.4,5.01,0.00,22.6,21.5,00.0,31.4,24.5,08.6,0000.0,0008.36,0003.56,0003.20
2022-11-11 08:19:00,,0827.4,5.00,0.00,22.7,22.3,00.0,31.4,24.7,08.6,0000.0,0007.77,0003.55,0003.21
2022-11-11 08:20:00,,0827.4,4.99,0.00,22.8,22.7,00.0,31.4,24.8,08.6,0000.0,0007.52,0003.54,0003.22
2022-11-11 08:21:00,,0827.3,5.00,0.00,22.8,22.3,00.0,31.5,24.8,08.6,0000.0,0007.91,0003.55,0003.23
2022-11-11 08:22:00,,0827.4,5.00,0.00,22.8,22.0,00.0,31.5,24.7,08.5,0000.0,0008.00,0003.59,0003.24
2022-11-11 08:23:00,,0827.4,5.00,0.00,22.8,21.8,00.0,31.5,24.7,08.6,0000.0,0007.96,0003.59,0003.24
2022-11-11 08:24:00,,0827.4,5.02,0.00,22.8,21.6,00.0,31.5,24.6,08.6,0000.0,0007.91,0003.59,0003.25
2022-11-11 08:25:00,,0827.4,4.99,0.00,22.8,21.5,00.0,31.5,24.6,08.6,0000.0,0008.01,0003.65,0003.26
2022-11-11 08:26:00,,0827.4,4.99,0.00,22.7,21.5,00.0,31.5,24.6,08.6,0000.0,0008.02,0003.68,0003.28
2022-11-11 08:27:00,,0827.3,5.01,0.00,22.7,21.4,00.0,31.5,24.5,08.6,0000.0,0008.06,0003.70,0003.29
2022-11-11 08:28:00,,0827.3,5.00,0.00,22.7,21.4,00.0,31.5,24.5,08.6,0000.0,0007.88,0003.71,0003.30
2022-11-11 08:29:00,,0827.3,5.01,0.00,22.7,21.3,00.0,31.5,24.5,08.6,0000.0,0007.60,0003.74,0003.32
2022-11-11 08:30:00,,0827.4,4.99,0.00,22.7,21.3,00.0,31.5,24.5,08.6,0000.0,0007.21,0003.73,0003.32
2022-11-11 08:31:00,,0827.2,4.99,0.00,22.7,21.3,00.0,31.5,24.4,08.6,0000.0,0007.11,0003.72,0003.32
2022-11-11 08:32:00,,0827.2,5.01,0.00,22.6,21.2,00.0,31.5,24.4,08.7,0000.0,0006.72,0003.72,0003.33
2022-11-11 08:33:00,,0827.2,5.01,0.00,22.6,21.2,00.0,31.5,24.4,08.7,0000.0,0007.77,0003.72,0003.34
2022-11-11 08:34:00,,0827.2,4.99,0.00,22.6,21.2,00.0,31.5,24.4,08.7,0000.0,0008.31,0003.74,0003.34
2022-11-11 08:35:00,,0827.2,5.01,0.00,22.6,21.4,00.0,31.5,24.4,08.7,0000.0,0009.76,0003.78,0003.35
2022-11-11 08:36:00,,0827.3,5.00,0.00,22.7,22.1,00.0,31.4,24.6,08.7,0000.0,0010.20,0003.78,0003.35
2022-11-11 08:37:00,,0827.2,4.98,0.00,22.8,22.5,00.0,31.4,24.8,08.7,0000.0,0010.09,0003.77,0003.35
2022-11-11 08:38:00,,0827.3,5.00,0.00,22.8,22.3,00.0,31.5,24.8,08.7,0000.0,0010.14,0003.78,0003.36
2022-11-11 08:39:00,,0827.3,4.99,0.00,22.8,22.0,00.0,31.5,24.7,08.7,0000.0,0010.14,0003.80,0003.37
2022-11-11 08:40:00,,0827.3,5.01,0.00,22.8,21.8,00.0,31.5,24.7,08.7,0000.0,0010.26,0003.82,0003.36
2022-11-11 08:41:00,,0827.4,4.99,0.00,22.8,21.7,00.0,31.5,24.6,08.6,0000.0,0010.28,0003.81,0003.35
2022-11-11 08:42:00,,0827.3,5.00,0.00,22.8,21.6,00.0,31.5,24.6,08.6,0000.0,0010.89,0003.83,0003.35
2022-11-11 08:43:00,,0827.4,5.01,0.00,22.7,21.5,00.0,31.5,24.6,08.6,0000.0,0010.95,0003.85,0003.35
2022-11-11 08:44:00,,0827.4,4.99,0.00,22.7,21.4,00.0,31.5,24.5,08.7,0000.0,0009.95,0003.84,0003.36
2022-11-11 08:45:00,,0827.4,5.00,0.00,22.7,21.4,00.0,31.5,24.5,08.7,0000.0,0009.41,0003.83,0003.37
2022-11-11 08:46:00,,0827.4,5.01,0.00,22.7,21.3,00.0,31.5,24.5,08.7,0000.0,0007.99,0003.82,0003.38
2022-11-11 08:47:00,,0827.3,4.98,0.00,22.7,21.3,00.0,31.5,24.5,08.7,0000.0,0007.90,0003.83,0003.39
2022-11-11 08:48:00,,0827.3,5.00,0.00,22.7,21.2,00.0,31.5,24.4,08.7,0000.0,0008.26,0003.85,0003.39
2022-11-11 08:49:00,,0827.3,5.01,0.00,22.6,21.2,00.0,31.5,24.4,08.8,0000.0,0008.20,0003.84,0003.39
2022-11-11 08:50:00,,0827.4,5.00,0.00,22.6,21.2,00.0,31.5,24.4,08.8,0000.0,0008.25,0003.80,0003.38
2022-11-11 08:51:00,,0827.3,5.01,0.00,22.6,21.4,00.0,31.5,24.5,08.8,0000.0,0008.20,0003.74,0003.39
2022-11-11 08:52:00,,0827.4,5.01,0.00,22.7,22.2,00.0,31.5,24.7,08.7,0000.0,0008.24,0003.75,0003.39
2022-11-11 08:53:00,,0827.4,4.98,0.00,22.8,22.7,00.0,31.5,24.8,08.7,0000.0,0007.78,0003.74,0003.39
2022-11-11 08:54:00,,0827.4,5.01,0.00,22.8,22.4,00.0,31.5,24.8,08.7,0000.0,0007.50,0003.72,0003.39
2022-11-11 08:55:00,,0827.4,4.99,0.00,22.8,22.1,00.0,31.5,24.7,08.7,0000.0,0007.48,0003.71,0003.38
2022-11-11 08:56:00,,0827.4,5.02,0.00,22.8,21.8,00.0,31.5,24.7,08.7,0000.0,0007.77,0003.74,0003.37
2022-11-11 08:57:00,,0827.4,4.99,0.00,22.8,21.6,00.0,31.5,24.6,08.7,0000.0,0007.98,0003.74,0003.36
2022-11-11 08:58:00,,0827.4,4.99,0.00,22.8,21.5,00.0,31.5,24.6,08.7,0000.0,0007.76,0003.70,0003.34
2022-11-11 08:59:00,,0827.5,5.00,0.00,22.8,21.5,00.0,31.5,24.6,08.7,0000.0,0006.96,0003.64,0003.32
